Simultaneous Nadir Overpasses (SNOs) Predictions

Prediction of SNOs between AQUA and NPP Satellite Orbit:

Table of predicted SNOs for the next 14.0 days since TLE Epoch: 4/3/2016
Index Date (AQUA) Time (AQUA) Lat,Lon (AQUA) SZA (AQUA ) Date (NPP) Time (NPP) Lat,Lon (NPP) SZA (NPP ) Distance(km) Time Diff (sec)
1 04/03/2016 14:06:27 -74.80, 24.24 86.81 04/03/2016 14:06:00 -74.80, 24.21 86.77 0.99 27
2 04/03/2016 14:55:28 76.02,-164.71 91.81 04/03/2016 14:56:18 76.01,-164.76 91.78 1.27 50
3 04/06/2016 05:38:27 58.25, -47.24 108.82 04/06/2016 05:37:14 58.45, -48.37 109.13 69.18 73
4 04/06/2016 06:22:49 -75.29, 141.40 88.38 04/06/2016 06:22:46 -75.29, 141.38 88.38 0.56 3
5 04/06/2016 07:11:37 77.10, -45.14 89.50 04/06/2016 07:12:51 77.06, -45.08 89.45 5.13 74
6 04/08/2016 21:50:05 74.61, 87.87 91.37 04/08/2016 21:49:09 74.62, 87.94 91.40 2.15 56
7 04/08/2016 22:39:09 -75.81,-101.25 89.99 04/08/2016 22:39:30 -75.82,-101.21 90.02 1.05 21
8 04/11/2016 14:06:33 74.78,-155.85 90.19 04/11/2016 14:06:02 74.78,-155.88 90.22 0.94 31
9 04/11/2016 14:55:37 -75.97, 15.11 91.18 04/11/2016 14:56:23 -75.96, 15.04 91.20 2.00 46
10 04/14/2016 06:22:48 75.58, -37.81 88.30 04/14/2016 06:22:41 75.59, -37.71 88.28 2.79 7
11 04/14/2016 07:11:56 -76.55, 132.86 92.84 04/14/2016 07:13:06 -76.56, 132.93 92.92 1.99 70
12 04/16/2016 21:50:15 -74.51, -92.42 91.46 04/16/2016 21:49:16 -74.52, -92.37 91.42 1.52 59




NCC Satellite Simultaneous Nadir Overpasses (SNOs) Prediction Service
